Weather in Edenvale

South Africa     26°08′43″S   28°09′17″E
temp.,
°C
wind,
m/s
gust,
m/s
humid.,
%
clouds,
%
prec.,
mm/h
press.,
hPa
HPBL,
m
10 may, mon
mon1023:00+14ssw38400 0.0 1022333
02:00+12ssw37410 0.0 1022267
05:00+11ssw25430 0.0 1023181
08:00+12ssw23410 0.0 1025224
11:00+18sw11270 0.0 1024639
14:00+21sw23220 0.0 10201401
17:00+20ssw34220 0.0 10201426
20:00+17ssw24280 0.0 1023148
11 may, tue
tue1123:00+16sw23320 0.0 102366
02:00+14sw24360 0.0 1024113
05:00+13ssw23400 0.0 1024103
08:00+14sw23380 0.0 1026145
11:00+20sw22230 0.0 1024771
14:00+23wsw22150 0.0 10211505
17:00+22sw23160 0.0 10211029
20:00+19wsw11220 0.0 102333
12 may, wed
wed1223:00+17wnw12270 0.0 102340
02:00+15wsw22290 0.0 102329
05:00+14sw11300 0.0 102321
08:00+15sw12280 0.0 102488
11:00+21sw23190 0.0 1022957
14:00+24sw23150 0.0 10181646
17:00+23ssw23150 0.0 1019869
20:00+19s25210 0.0 1021145
13 may, thu
thu1323:00+17s22240 0.0 102128
02:00+16sse11260 0.0 102111
05:00+14se11280 0.0 102112
08:00+15e11270 0.0 102377
11:00+22nw01170 0.0 1021699
14:00+24nw23120 0.0 10181910
17:00+23nnw22120 0.0 10181196
20:00+20nnw37180 0.0 1020274
14 may, fri
fri1423:00+18nnw23230 0.0 102062
02:00+16nnw12250 0.0 102037
05:00+15nnw11310 0.0 102119
08:00+16n23340 0.0 1022173
11:00+21nnw11220 0.0 10201040
14:00+23nw23140 0.0 10161817
17:00+22nw22130 0.0 10161832
20:00+19nw36210 0.0 1018330